Meteo pe oră la Aarberg

Astăzi, 13 Iunie, Duminică

Timp Temperatura Precipitaţii Vânt Presiune Umiditate
00:00 +16°C° 0 mm 1 m/s 722 mmHg 95%
01:00 +16°C° 0 mm 1 m/s 722 mmHg 95%
02:00 +15°C° 0 mm 1 m/s 722 mmHg 96%
03:00 +15°C° 0 mm 1 m/s 722 mmHg 96%
04:00 +16°C° 0 mm 1 m/s 722 mmHg 94%
05:00 +18°C° 0 mm 1 m/s 722 mmHg 92%
06:00 +18°C° 0 mm 2 m/s 723 mmHg 89%
07:00 +20°C° 0 mm 2 m/s 723 mmHg 81%
08:00 +21°C° 0 mm 2 m/s 723 mmHg 73%
09:00 +24°C° 0 mm 3 m/s 723 mmHg 65%
10:00 +25°C° 0 mm 3 m/s 723 mmHg 61%
11:00 +25°C° 0 mm 3 m/s 723 mmHg 56%
12:00 +26°C° 0 mm 4 m/s 723 mmHg 53%
13:00 +26°C° 0 mm 4 m/s 723 mmHg 52%
14:00 +26°C° 0 mm 3 m/s 722 mmHg 51%
15:00 +26°C° 0 mm 3 m/s 722 mmHg 51%
16:00 +25°C° 0 mm 3 m/s 722 mmHg 57%
17:00 +24°C° 0 mm 3 m/s 722 mmHg 64%
18:00 +22°C° 0 mm 3 m/s 722 mmHg 70%
19:00 +20°C° 0 mm 3 m/s 721 mmHg 76%
20:00 +18°C° 0 mm 3 m/s 721 mmHg 81%
21:00 +17°C° 0 mm 3 m/s 721 mmHg 87%
22:00 +16°C° 0 mm 3 m/s 721 mmHg 87%
23:00 +15°C° 0 mm 2 m/s 721 mmHg 88%

Mâine, 14 Iunie, Luni

Timp Temperatura Precipitaţii Vânt Presiune Umiditate
00:00 +14°C° 0 mm 2 m/s 721 mmHg 88%
01:00 +13°C° 0 mm 2 m/s 720 mmHg 89%
02:00 +13°C° 0 mm 2 m/s 720 mmHg 89%
03:00 +12°C° 0 mm 1 m/s 720 mmHg 90%
04:00 +14°C° 0 mm 1 m/s 720 mmHg 86%
05:00 +15°C° 0 mm 1 m/s 720 mmHg 82%
06:00 +16°C° 0 mm 1 m/s 721 mmHg 77%
07:00 +18°C° 0 mm 2 m/s 720 mmHg 70%
08:00 +20°C° 0 mm 2 m/s 720 mmHg 63%
09:00 +23°C° 0 mm 2 m/s 720 mmHg 56%
10:00 +25°C° 0 mm 2 m/s 720 mmHg 52%
11:00 +26°C° 0 mm 2 m/s 720 mmHg 48%
12:00 +27°C° 0 mm 2 m/s 720 mmHg 44%
13:00 +28°C° 0 mm 2 m/s 720 mmHg 44%
14:00 +28°C° 0 mm 2 m/s 719 mmHg 44%
15:00 +28°C° 0 mm 2 m/s 719 mmHg 44%
16:00 +27°C° 0 mm 2 m/s 719 mmHg 53%
17:00 +25°C° 0 mm 2 m/s 719 mmHg 62%
18:00 +24°C° 0 mm 1 m/s 719 mmHg 71%
19:00 +22°C° 0 mm 1 m/s 719 mmHg 76%
20:00 +20°C° 0 mm 1 m/s 719 mmHg 80%
21:00 +18°C° 0 mm 1 m/s 719 mmHg 85%
22:00 +16°C° 0 mm 1 m/s 719 mmHg 86%
23:00 +16°C° 0 mm 1 m/s 719 mmHg 87%

Poimâine, 15 Iunie, Marţi

Timp Temperatura Precipitaţii Vânt Presiune Umiditate
00:00 +15°C° 0 mm 1 m/s 719 mmHg 89%
01:00 +15°C° 0 mm 1 m/s 719 mmHg 89%
02:00 +15°C° 0 mm 1 m/s 719 mmHg 89%
03:00 +13°C° 0 mm 0 m/s 719 mmHg 90%
04:00 +15°C° 0 mm 0 m/s 719 mmHg 85%
05:00 +16°C° 0 mm 0 m/s 719 mmHg 81%
06:00 +18°C° 0 mm 0 m/s 719 mmHg 77%
07:00 +20°C° 0 mm 0 m/s 719 mmHg 70%
08:00 +22°C° 0 mm 0 m/s 719 mmHg 63%
09:00 +26°C° 0 mm 1 m/s 719 mmHg 55%
10:00 +27°C° 0 mm 1 m/s 719 mmHg 52%
11:00 +28°C° 0 mm 1 m/s 719 mmHg 48%
12:00 +29°C° 0 mm 2 m/s 719 mmHg 44%
13:00 +29°C° 0 mm 2 m/s 719 mmHg 44%
14:00 +29°C° 0 mm 2 m/s 719 mmHg 44%
15:00 +29°C° 0 mm 1 m/s 719 mmHg 44%
16:00 +27°C° 0 mm 1 m/s 719 mmHg 54%
17:00 +26°C° 0 mm 1 m/s 718 mmHg 64%
18:00 +24°C° 0 mm 1 m/s 718 mmHg 73%
19:00 +23°C° 0 mm 1 m/s 718 mmHg 77%
20:00 +21°C° 0 mm 1 m/s 718 mmHg 81%
21:00 +19°C° 0 mm 1 m/s 718 mmHg 84%
22:00 +19°C° 0 mm 1 m/s 718 mmHg 84%
23:00 +18°C° 0 mm 1 m/s 718 mmHg 84%

16 Iunie, Miercuri

Timp Temperatura Precipitaţii Vânt Presiune Umiditate
00:00 +18°C° 0 mm 1 m/s 718 mmHg 84%
01:00 +16°C° 0 mm 1 m/s 718 mmHg 85%
02:00 +16°C° 0 mm 1 m/s 717 mmHg 85%
03:00 +16°C° 0 mm 1 m/s 717 mmHg 85%
04:00 +16°C° 0 mm 0 m/s 717 mmHg 82%
05:00 +17°C° 0 mm 0 m/s 717 mmHg 78%
06:00 +19°C° 0 mm 0 m/s 717 mmHg 74%
07:00 +21°C° 0 mm 0 m/s 717 mmHg 68%
08:00 +22°C° 0 mm 0 m/s 717 mmHg 62%
09:00 +26°C° 0 mm 1 m/s 717 mmHg 56%
10:00 +27°C° 0 mm 1 m/s 717 mmHg 53%
11:00 +28°C° 0 mm 1 m/s 717 mmHg 50%
12:00 +29°C° 0 mm 1 m/s 717 mmHg 47%
13:00 +29°C° 0 mm 1 m/s 716 mmHg 46%
14:00 +29°C° 0 mm 1 m/s 716 mmHg 45%
15:00 +30°C° 0 mm 1 m/s 716 mmHg 44%
16:00 +28°C° 0 mm 1 m/s 716 mmHg 53%
17:00 +27°C° 0 mm 1 m/s 715 mmHg 62%
18:00 +26°C° 0 mm 1 m/s 715 mmHg 71%
19:00 +24°C° 0 mm 1 m/s 715 mmHg 74%
20:00 +22°C° 0 mm 1 m/s 715 mmHg 76%
21:00 +21°C° 0 mm 1 m/s 715 mmHg 79%
22:00 +20°C° 0 mm 1 m/s 715 mmHg 79%
23:00 +20°C° 0 mm 1 m/s 715 mmHg 79%

17 Iunie, Joi

Timp Temperatura Precipitaţii Vânt Presiune Umiditate
00:00 +19°C° 0 mm 1 m/s 715 mmHg 79%
01:00 +19°C° 0 mm 1 m/s 715 mmHg 80%
02:00 +18°C° 0 mm 1 m/s 715 mmHg 80%
03:00 +18°C° 0 mm 1 m/s 715 mmHg 81%
04:00 +19°C° 0.1 mm 1 m/s 715 mmHg 79%
05:00 +21°C° 0.1 mm 1 m/s 716 mmHg 78%
06:00 +22°C° 0.1 mm 1 m/s 716 mmHg 77%
07:00 +23°C° 0 mm 1 m/s 716 mmHg 70%
08:00 +25°C° 0 mm 1 m/s 716 mmHg 64%
09:00 +27°C° 0 mm 1 m/s 716 mmHg 58%
10:00 +28°C° 0 mm 1 m/s 716 mmHg 55%
11:00 +29°C° 0 mm 1 m/s 716 mmHg 51%
12:00 +30°C° 0 mm 1 m/s 716 mmHg 48%
13:00 +30°C° 0 mm 1 m/s 715 mmHg 47%
14:00 +30°C° 0 mm 1 m/s 715 mmHg 47%
15:00 +30°C° 0 mm 2 m/s 715 mmHg 47%
16:00 +29°C° 0.3 mm 1 m/s 715 mmHg 57%
17:00 +27°C° 0.3 mm 1 m/s 714 mmHg 68%
18:00 +25°C° 0.3 mm 1 m/s 714 mmHg 78%
19:00 +23°C° 0.8 mm 1 m/s 715 mmHg 83%
20:00 +22°C° 0.8 mm 1 m/s 715 mmHg 88%
21:00 +20°C° 0.8 mm 1 m/s 715 mmHg 92%
22:00 +19°C° 0.9 mm 2 m/s 716 mmHg 94%
23:00 +18°C° 0.9 mm 2 m/s 716 mmHg 95%

18 Iunie, Vineri

Timp Temperatura Precipitaţii Vânt Presiune Umiditate
00:00 +18°C° 0.9 mm 2 m/s 716 mmHg 97%
01:00 +18°C° 0.5 mm 2 m/s 716 mmHg 97%
02:00 +18°C° 0.5 mm 2 m/s 717 mmHg 96%
03:00 +19°C° 0.5 mm 1 m/s 717 mmHg 96%
04:00 +19°C° 0.1 mm 1 m/s 717 mmHg 96%
05:00 +19°C° 0.1 mm 1 m/s 717 mmHg 95%
06:00 +18°C° 0.1 mm 0 m/s 717 mmHg 94%
07:00 +21°C° 0 mm 1 m/s 717 mmHg 88%
08:00 +22°C° 0 mm 1 m/s 717 mmHg 82%
09:00 +23°C° 0 mm 1 m/s 717 mmHg 76%
10:00 +25°C° 0.1 mm 1 m/s 717 mmHg 69%
11:00 +26°C° 0.1 mm 1 m/s 717 mmHg 63%
12:00 +27°C° 0.1 mm 1 m/s 717 mmHg 57%
13:00 +28°C° 0.1 mm 1 m/s 717 mmHg 57%
14:00 +28°C° 0.1 mm 1 m/s 717 mmHg 57%
15:00 +28°C° 0.1 mm 1 m/s 717 mmHg 56%
16:00 +27°C° 0.2 mm 1 m/s 717 mmHg 65%
17:00 +26°C° 0.2 mm 1 m/s 718 mmHg 74%
18:00 +24°C° 0.2 mm 1 m/s 718 mmHg 83%
19:00 +23°C° 0.1 mm 1 m/s 718 mmHg 85%
20:00 +21°C° 0.1 mm 1 m/s 718 mmHg 87%
21:00 +20°C° 0.1 mm 1 m/s 718 mmHg 89%
22:00 +20°C° 0 mm 1 m/s 718 mmHg 90%
23:00 +19°C° 0 mm 1 m/s 718 mmHg 90%
Arată mai mult

Formular de consimțământ

Meteoprog și furnizorii noștri de servicii pot stoca și accesa date personale, precum cookies, identificatori de dispozitiv sau alte tehnologii similare pe dispozitivul dumneavoastră și procesa astfel de date pentru a personaliza conținutul și reclamele, dar și pentru a oferi caracteristici de social media și pentru a analiza traficul.

  • Stocarea și/sau accesarea informațiilor pe dispozitivul dumneavoastră

    Cookies, identificatori de dispozitiv sau alte informații pot fi stocate sau accesate pe dispozitiv în scopurile indicate mai sus.

  • Reclame și conținut personalizat, evaluarea reclamelor și a conținutului, informații despre audiențe și dezvoltarea produselor

    Reclamele și conținutul pot fi personalizate pe baza unui profil. Pot fi adăugate date suplimentare pentru a personaliza mai bine reclamele și conținutul. Performanța reclamelor și conținutului poate fi măsurată. Pot fi obținute informații despre utilizatorii care au văzut reclamele și conținutul. Aceste date pot fi utilizate pentru a dezvolta sau îmbunătăți experiența utilizatorilor, sistemele și software-ul.

Dând clic pe ‘Sunt de acord’, permiteți utilizarea cookie-urilor menționate, a identificatorilor de dispozitiv, balizelor web sau altor tehnologii similare. Setările pot fi modificate din browser-ul dispozitivului dumneavoastră.

În anumite scopuri, interesele legitime pot prima asupra consimțământului. Puteți citi mai multe informații în acest sens în Politica privind Confidențialitatea Datelor și Cookie.